DW0333 Tranby-Lier NO current weather conditions

sailwx.info

Wind from 309 at 3 knots

Air temperature -0.0° C
Dewpoint -2.4° C

Last reported at 2014-Dec-22 21:49 UTC.
Time now 2014-Dec-22 22:44 UTC

Location: N 59°50' E 010°17'.
View on Google Maps.

See reports from other nearby stations

  
Tides and Currents Weather Stations Pressure Air Temp Water Temp Dewpoint Dewpoint Depression Visibility Wind Speed Wind Dir Waves Ship Positions
date/time (UTC)wind fromknots sea level pressurealtimeterstation pressurevisibilityair tempwater tempwave heightnotes
2014-Dec-22 21:49 309 3 -0.0
2014-Dec-22 21:34 288 3 -0.0
2014-Dec-22 21:19 280 3 -0.0
2014-Dec-22 21:03 263 4 0.6
2014-Dec-22 20:48 261 3 -0.0
2014-Dec-22 20:32 299 4 -0.0
2014-Dec-22 20:19 269 5 -0.0
2014-Dec-22 20:03 288 3 -0.6
2014-Dec-22 19:48 289 1 -0.6
2014-Dec-22 19:32 229 1 -0.6
2014-Dec-22 19:17 217 2 -0.6
2014-Dec-22 19:02 290 3 -1.1
2014-Dec-22 18:46 291 3 -1.1
2014-Dec-22 18:31 037 0 -1.1
2014-Dec-22 18:16 230 2 -1.1
2014-Dec-22 18:01 283 2 -1.1
2014-Dec-22 17:46 244 3 -1.7
2014-Dec-22 17:31 268 1 -1.7
2014-Dec-22 17:15 212 4 -1.1
2014-Dec-22 17:00 229 3 -1.1
2014-Dec-22 16:44 252 0 -1.1
2014-Dec-22 16:29 111 1 -1.1
2014-Dec-22 16:15 139 2 -1.1
2014-Dec-22 15:59 112 2 -1.1
2014-Dec-22 15:44 113 2 -0.6
2014-Dec-22 15:29 175 1 -0.6
2014-Dec-22 15:14 085 2 -0.6
2014-Dec-22 14:58 156 1 -0.6
2014-Dec-22 14:43 161 1 -0.0
2014-Dec-22 14:28 148 0 0.6
2014-Dec-22 14:12 126 1 0.6
2014-Dec-22 13:58 159 1 1.1
2014-Dec-22 13:43 245 1 1.7
2014-Dec-22 13:27 169 1 2.2
2014-Dec-22 13:12 086 1 2.8
2014-Dec-22 12:56 098 0 2.8
2014-Dec-22 12:42 088 0 2.8
2014-Dec-22 12:26 288 2.2
2014-Dec-22 12:12 288 1 1.7
2014-Dec-22 11:57 290 2 1.7
2014-Dec-22 11:42 257 1 1.7
2014-Dec-22 11:25 186 0 1.7
2014-Dec-22 11:09 241 1 1.7
2014-Dec-22 10:54 306 0 1.1
2014-Dec-22 10:39 291 0 0.6
2014-Dec-22 10:24 291 0 0.6
2014-Dec-22 10:08 281 1 -0.0
2014-Dec-22 09:53 226 -0.0
2014-Dec-22 09:38 227 0 -0.6
2014-Dec-22 09:23 267 2 -1.1
2014-Dec-22 09:07 271 1 -1.7
2014-Dec-22 08:53 001 1 -2.2
2014-Dec-22 08:37 034 0 -2.2
2014-Dec-22 08:22 033 2 -2.2
2014-Dec-22 08:06 226 0 -1.7
2014-Dec-22 07:51 265 2 -1.7
2014-Dec-22 07:36 184 0 -2.2
2014-Dec-22 07:21 004 0 -2.2
2014-Dec-22 07:06 044 0 -2.2
2014-Dec-22 06:52 289 2 -1.7
2014-Dec-22 06:36 302 2 -2.8
2014-Dec-22 06:22 217 1 -3.3
2014-Dec-22 06:07 252 0 -3.3
2014-Dec-22 05:49 035 0 -3.3
2014-Dec-22 05:34 043 0 -2.8
2014-Dec-22 05:19 217 0 -2.2
2014-Dec-22 05:04 096 -2.2
2014-Dec-22 04:48 012 -2.2
2014-Dec-22 04:33 125 0 -2.2
2014-Dec-22 04:18 123 0 -2.8
2014-Dec-22 04:03 314 0 -3.3
2014-Dec-22 03:47 027 2 -3.3
2014-Dec-22 03:32 033 1 -2.2
2014-Dec-22 03:17 125 -1.7
2014-Dec-22 03:02 134 0 -1.7
2014-Dec-22 02:47 085 -1.7
2014-Dec-22 02:32 085 -1.7
2014-Dec-22 02:16 085 -1.7
2014-Dec-22 02:04 085 0 -1.7
2014-Dec-22 01:47 042 0 -2.2
2014-Dec-22 01:31 054 -1.7
2014-Dec-22 01:16 295 0 -1.7
2014-Dec-22 01:01 036 0 -1.7
2014-Dec-22 00:46 256 0 -1.7
2014-Dec-22 00:29 186 0 -1.7
2014-Dec-22 00:14 327 -1.7
2014-Dec-21 23:59 245 -1.1
2014-Dec-21 23:44 245 0 -1.1
2014-Dec-21 23:28 246 -1.1
2014-Dec-21 23:14 246 -1.1
2014-Dec-21 22:58 238 -1.1
2014-Dec-21 22:43 238 0 -1.1
2014-Dec-21 22:28 177 -0.6
2014-Dec-21 22:12 177 -0.6
2014-Dec-21 21:57 177 0 -0.6
2014-Dec-21 21:42 040 -0.6
2014-Dec-21 21:27 040 0 -0.6
2014-Dec-21 21:13 109 -0.6
2014-Dec-21 20:57 155 0 -0.6
2014-Dec-21 20:42 158 0 -0.6
2014-Dec-21 20:26 169 0 -0.6
2014-Dec-21 20:11 185 1 -0.6
2014-Dec-21 19:56 125 1 -0.6
2014-Dec-21 19:41 135 0 -0.6
2014-Dec-21 19:27 225 1 -0.6
2014-Dec-21 19:11 163 1 -0.6
2014-Dec-21 18:55 166 1 -1.1
2014-Dec-21 18:39 115 1 -1.1
2014-Dec-21 18:24 106 2 -1.1
2014-Dec-21 18:09 104 2 -1.1
2014-Dec-21 17:54 082 1 -1.1
2014-Dec-21 17:38 084 3 -1.1
2014-Dec-21 17:24 093 2 -1.1
2014-Dec-21 17:08 113 2 -1.1
2014-Dec-21 16:53 063 2 -1.1
2014-Dec-21 16:38 082 3 -1.7
2014-Dec-21 16:22 110 2 -1.7
2014-Dec-21 16:07 101 2 -1.7
2014-Dec-21 15:52 069 3 -1.7
2014-Dec-21 15:37 117 2 -1.7
2014-Dec-21 15:22 058 2 -1.7
2014-Dec-21 15:07 092 2 -1.7
2014-Dec-21 14:51 044 2 -1.7
2014-Dec-21 14:36 111 1 -1.7
2014-Dec-21 14:21 096 2 -1.7
2014-Dec-21 14:06 072 1 -1.7
2014-Dec-21 13:51 088 1 -1.7
2014-Dec-21 13:36 058 1 -1.7
2014-Dec-21 13:21 108 0 -1.7
2014-Dec-21 13:04 152 0 -1.7
2014-Dec-21 12:49 174 0 -1.7
2014-Dec-21 12:35 188 1 -1.7
2014-Dec-21 12:19 202 2 -1.7
2014-Dec-21 12:03 193 4 -1.1
2014-Dec-21 11:48 170 4 -0.6
2014-Dec-21 11:33 258 5 -0.6
2014-Dec-21 11:18 259 5 -0.0
2014-Dec-21 11:02 260 5 -0.0
2014-Dec-21 10:47 256 4 -0.6
2014-Dec-21 10:33 247 5 -0.6
2014-Dec-21 10:17 261 4 -0.6
2014-Dec-21 10:02 250 4 -0.0
2014-Dec-21 09:48 224 4 -0.0
2014-Dec-21 09:31 194 1 -0.6
2014-Dec-21 09:16 203 2 -0.6
2014-Dec-21 09:01 288 3 -0.6
2014-Dec-21 08:46 261 4 -0.6
2014-Dec-21 08:31 254 4 -0.6
2014-Dec-21 08:16 256 2 -1.1
2014-Dec-21 08:01 261 1 -1.1
2014-Dec-21 07:44 189 2 -0.6
2014-Dec-21 07:29 277 4 -0.6
2014-Dec-21 07:14 260 5 -0.6
2014-Dec-21 07:00 257 4 -0.6
2014-Dec-21 06:44 275 4 -0.6
2014-Dec-21 06:28 275 5 -1.1
2014-Dec-21 06:13 302 2 -1.1
2014-Dec-21 05:58 287 0 -0.6
2014-Dec-21 05:43 311 2 -0.6
2014-Dec-21 05:27 271 2 -1.1
2014-Dec-21 05:12 295 1 -0.6
2014-Dec-21 04:57 246 2 -0.6
2014-Dec-21 04:42 304 2 -0.6
2014-Dec-21 04:27 271 3 -0.6
2014-Dec-21 04:12 273 4 -0.6
2014-Dec-21 03:57 279 2 -0.6
2014-Dec-21 03:42 263 2 -0.6
2014-Dec-21 03:26 343 1 -0.6
2014-Dec-21 03:11 283 1 -0.0
2014-Dec-21 02:56 330 5 -0.0
2014-Dec-21 02:43 279 3 -0.0
2014-Dec-21 02:27 336 4 -0.0
2014-Dec-21 02:09 271 3 -0.0
2014-Dec-21 01:54 229 2 -0.0
2014-Dec-21 01:40 299 4 -0.0
2014-Dec-21 01:24 294 3 -0.0
2014-Dec-21 01:09 253 2 -0.0
2014-Dec-21 00:53 304 2 0.6
2014-Dec-21 00:38 255 4 0.6
2014-Dec-21 00:23 270 5 0.6
2014-Dec-21 00:08 286 4 -0.0
2014-Dec-20 23:52 279 3 -0.0
2014-Dec-20 23:38 192 2 -0.6
2014-Dec-20 23:22 257 1 -0.6
2014-Dec-20 23:08 177 2 -0.0
2014-Dec-20 22:52 294 1 -0.0
2014-Dec-20 22:37 106 0 -0.0
2014-Dec-20 22:21 025 2 -0.0
2014-Dec-20 22:06 241 4 -0.0